Date String (YYYY-MM-DD hh:mm:ss) UTC,Instrument flags,absolute air pressure of the measurement (hPa),sample flow rate (lpm),inlet stack bypass flow (lpm),air temperature of the measurement (°C),ambient temperature measured by the external sensor (°C),aerosol sample conditioner tube jacket temperature (°C),OPC LED temperature (°C),internal box temperature (°C),relative humidity of the measurement (%),span deviation,mass concentration of particles derived from Lorenz-Mie calculation of OPC scattering (μg/m³),mass concentration of particles derived from Lorenz-Mie calculation of OPC scattering (μg/m³),mass concentration of particles derived from Lorenz-Mie calculation of OPC scattering (μg/m³)
DateTimeUTC,F1_M11,P_M11,Q1_M11,Q2_M11,T1_M11,T2_M11,T3_M11,T4_M11,T5_M11,U1_M11,ZSPAN_M11,X0_M11,X2_M11,X1_M11
2023-08-29 21:00:00,SystemResetWarning,0837.5,5.00,000.00,027.5,025.0,000.0,035.9,029.1,29.8,0000.0,0009.42,0004.11,0003.64
2023-08-29 21:01:00,SystemResetWarning,0837.5,5.00,000.00,027.6,025.5,000.0,035.9,029.3,29.2,0000.0,0009.80,0004.13,0003.65
2023-08-29 21:02:00,SystemResetWarning,0837.5,5.00,000.00,027.6,025.8,000.0,036.0,029.4,29.1,0000.0,0009.68,0004.09,0003.65
2023-08-29 21:03:00,SystemResetWarning,0837.5,5.00,000.00,027.7,026.2,000.0,036.0,029.5,28.6,0000.0,0010.38,0004.10,0003.65
2023-08-29 21:04:00,SystemResetWarning,0837.5,5.00,000.00,027.7,026.5,000.0,036.0,029.6,27.5,0000.0,0009.72,0004.08,0003.65
2023-08-29 21:05:00,SystemResetWarning,0837.4,4.99,000.00,027.8,026.4,000.0,036.0,029.6,27.7,0000.0,0009.54,0004.06,0003.65
2023-08-29 21:06:00,SystemResetWarning,0837.4,4.99,000.00,027.8,024.9,000.0,035.9,029.3,27.8,0000.0,0009.62,0004.03,0003.65
2023-08-29 21:07:00,SystemResetWarning,0837.4,5.00,000.00,027.7,023.9,000.0,035.8,029.0,28.7,0000.0,0009.40,0004.02,0003.65
2023-08-29 21:08:00,SystemResetWarning,0837.2,5.01,000.00,027.6,023.9,000.0,035.8,028.9,29.2,0000.0,0009.46,0004.04,0003.65
2023-08-29 21:09:00,SystemResetWarning,0837.2,5.00,000.00,027.5,024.3,000.0,035.8,028.9,28.9,0000.0,0009.62,0004.06,0003.66
2023-08-29 21:10:00,SystemResetWarning,0837.3,5.00,000.00,027.5,024.7,000.0,035.9,029.0,29.4,0000.0,0009.73,0004.05,0003.67
2023-08-29 21:11:00,SystemResetWarning,0837.3,5.00,000.00,027.5,025.2,000.0,035.9,029.2,28.6,0000.0,0010.12,0004.04,0003.68
2023-08-29 21:12:00,SystemResetWarning,0837.2,5.00,000.00,027.6,025.6,000.0,035.9,029.3,28.3,0000.0,0009.66,0004.05,0003.68
2023-08-29 21:13:00,SystemResetWarning,0837.2,5.00,000.00,027.6,026.0,000.0,036.0,029.4,28.4,0000.0,0009.42,0004.04,0003.67
2023-08-29 21:14:00,SystemResetWarning,0837.2,5.00,000.00,027.7,026.3,000.0,036.0,029.5,28.7,0000.0,0009.24,0004.09,0003.68
2023-08-29 21:15:00,SystemResetWarning,0837.2,4.99,000.00,027.8,026.6,000.0,036.0,029.6,28.9,0000.0,0009.49,0004.10,0003.67
2023-08-29 21:16:00,SystemResetWarning,0837.3,4.99,000.00,027.8,026.0,000.0,036.0,029.5,28.9,0000.0,0009.77,0004.11,0003.68
2023-08-29 21:17:00,SystemResetWarning,0837.2,5.00,000.00,027.7,024.5,000.0,035.9,029.2,28.5,0000.0,0009.79,0004.13,0003.68
2023-08-29 21:18:00,SystemResetWarning,0837.3,5.00,000.00,027.7,023.9,000.0,035.8,029.0,28.8,0000.0,0009.89,0004.13,0003.68
2023-08-29 21:19:00,SystemResetWarning,0837.2,5.01,000.00,027.6,024.1,000.0,035.8,029.0,28.7,0000.0,0009.93,0004.14,0003.68
2023-08-29 21:20:00,SystemResetWarning,0837.2,5.01,000.00,027.5,024.4,000.0,035.9,029.0,29.6,0000.0,0009.82,0004.14,0003.67
2023-08-29 21:21:00,SystemResetWarning,0837.2,4.98,000.00,027.5,024.9,000.0,035.9,029.1,29.5,0000.0,0009.66,0004.16,0003.68
2023-08-29 21:22:00,SystemResetWarning,0837.2,4.99,000.00,027.6,025.3,000.0,035.9,029.2,30.0,0000.0,0009.29,0004.18,0003.69
2023-08-29 21:23:00,SystemResetWarning,0837.2,5.00,000.00,027.6,025.8,000.0,035.9,029.4,29.5,0000.0,0008.91,0004.19,0003.68
2023-08-29 21:24:00,SystemResetWarning,0837.2,5.01,000.00,027.7,026.1,000.0,036.0,029.5,28.5,0000.0,0009.16,0004.20,0003.69
2023-08-29 21:25:00,SystemResetWarning,0837.2,5.00,000.00,027.7,026.4,000.0,036.0,029.6,28.3,0000.0,0009.31,0004.20,0003.70
2023-08-29 21:26:00,SystemResetWarning,0837.2,4.99,000.00,027.8,026.6,000.0,036.0,029.6,28.2,0000.0,0009.41,0004.22,0003.71
2023-08-29 21:27:00,SystemResetWarning,0837.2,5.00,000.00,027.8,025.6,000.0,036.0,029.4,28.0,0000.0,0010.41,0004.20,0003.71
2023-08-29 21:28:00,SystemResetWarning,0837.2,5.01,000.00,027.7,024.2,000.0,035.9,029.1,28.5,0000.0,0010.71,0004.22,0003.70
2023-08-29 21:29:00,SystemResetWarning,0837.2,5.00,000.00,027.6,023.9,000.0,035.8,029.0,28.2,0000.0,0011.90,0004.24,0003.71
2023-08-29 21:30:00,SystemResetWarning,0837.2,5.01,000.00,027.6,024.2,000.0,035.8,029.0,28.9,0000.0,0012.39,0004.23,0003.71
2023-08-29 21:31:00,SystemResetWarning,0837.2,5.00,000.00,027.5,024.6,000.0,035.9,029.0,28.6,0000.0,0012.60,0004.21,0003.71
2023-08-29 21:32:00,SystemResetWarning,0837.2,4.99,000.00,027.6,025.1,000.0,035.9,029.2,28.4,0000.0,0012.90,0004.21,0003.71
2023-08-29 21:33:00,SystemResetWarning,0837.1,5.00,000.00,027.6,025.5,000.0,035.9,029.3,28.0,0000.0,0013.67,0004.18,0003.69
2023-08-29 21:34:00,SystemResetWarning,0837.1,5.00,000.00,027.7,025.9,000.0,036.0,029.4,28.7,0000.0,0014.18,0004.17,0003.69
2023-08-29 21:35:00,SystemResetWarning,0837.0,5.01,000.00,027.7,026.3,000.0,036.0,029.6,27.9,0000.0,0014.12,0004.16,0003.69
2023-08-29 21:36:00,SystemResetWarning,0837.0,4.99,000.00,027.8,026.5,000.0,036.0,029.6,28.5,0000.0,0013.85,0004.11,0003.69
2023-08-29 21:37:00,SystemResetWarning,0836.9,4.99,000.00,027.8,025.7,000.0,036.0,029.4,28.7,0000.0,0013.78,0004.08,0003.69
2023-08-29 21:38:00,SystemResetWarning,0837.0,5.01,000.00,027.7,024.3,000.0,035.9,029.1,28.2,0000.0,0012.66,0004.09,0003.70
2023-08-29 21:39:00,SystemResetWarning,0836.9,5.01,000.00,027.6,023.9,000.0,035.8,029.1,27.8,0000.0,0011.92,0004.13,0003.71
2023-08-29 21:40:00,SystemResetWarning,0836.9,5.02,000.00,027.6,024.2,000.0,035.8,029.0,28.4,0000.0,0010.88,0004.12,0003.70
2023-08-29 21:41:00,SystemResetWarning,0836.9,5.00,000.00,027.5,024.6,000.0,035.9,029.0,28.3,0000.0,0010.24,0004.08,0003.69
2023-08-29 21:42:00,SystemResetWarning,0837.0,5.00,000.00,027.6,025.0,000.0,035.9,029.2,28.6,0000.0,0009.89,0004.07,0003.68
2023-08-29 21:43:00,SystemResetWarning,0837.0,5.00,000.00,027.6,025.5,000.0,035.9,029.3,27.7,0000.0,0010.30,0004.05,0003.68
2023-08-29 21:44:00,SystemResetWarning,0837.0,5.00,000.00,027.7,025.9,000.0,036.0,029.4,27.3,0000.8,0009.59,0004.06,0003.68
2023-08-29 21:45:00,SystemResetWarning,0836.9,4.99,000.00,027.7,026.2,000.0,036.0,029.5,27.6,0000.0,0009.06,0004.10,0003.68
2023-08-29 21:46:00,SystemResetWarning,0836.8,5.00,000.00,027.8,026.5,000.0,036.0,029.6,27.5,0000.0,0008.93,0004.12,0003.69
2023-08-29 21:47:00,SystemResetWarning,0836.8,4.98,000.00,027.8,025.9,000.0,036.0,029.5,27.6,0000.3,0008.89,0004.12,0003.68
2023-08-29 21:48:00,SystemResetWarning,0836.8,5.00,000.00,027.7,024.4,000.0,035.9,029.2,28.2,0000.4,0008.55,0004.16,0003.68
2023-08-29 21:49:00,SystemResetWarning,0836.8,5.00,000.00,027.7,023.9,000.0,035.8,029.0,28.5,0000.0,0008.68,0004.18,0003.68
2023-08-29 21:50:00,SystemResetWarning,0836.8,5.01,000.00,027.6,024.1,000.0,035.8,028.9,28.0,0000.0,0008.87,0004.13,0003.67
2023-08-29 21:51:00,SystemResetWarning,0836.8,5.01,000.00,027.5,024.5,000.0,035.9,029.0,28.0,0000.0,0009.06,0004.12,0003.67
2023-08-29 21:52:00,SystemResetWarning,0836.8,5.00,000.00,027.6,025.0,000.0,035.9,029.2,27.5,-000.3,0009.61,0004.17,0003.68
2023-08-29 21:53:00,SystemResetWarning,0836.8,5.00,000.00,027.6,025.4,000.0,035.9,029.3,27.5,-000.1,0009.72,0004.19,0003.69
2023-08-29 21:54:00,SystemResetWarning,0836.8,5.00,000.00,027.6,025.8,000.0,036.0,029.4,27.6,-000.1,0009.78,0004.23,0003.70
2023-08-29 21:55:00,SystemResetWarning,0836.8,4.99,000.00,027.7,026.2,000.0,036.0,029.5,27.1,-000.4,0009.40,0004.23,0003.69
2023-08-29 21:56:00,SystemResetWarning,0836.8,5.00,000.00,027.8,026.5,000.0,036.0,029.6,27.0,-000.8,0009.79,0004.22,0003.69
2023-08-29 21:57:00,SystemResetWarning,0836.8,4.99,000.00,027.8,026.1,000.0,036.0,029.6,27.7,-000.2,0009.86,0004.22,0003.69
2023-08-29 21:58:00,SystemResetWarning,0836.7,5.00,000.00,027.8,024.5,000.0,035.9,029.2,27.5,0000.1,0009.86,0004.23,0003.69
2023-08-29 21:59:00,SystemResetWarning,0836.8,5.00,000.00,027.7,023.8,000.0,035.8,029.0,27.2,0000.1,0009.73,0004.20,0003.69
